[[{"header":{"parameterUnit":"m.s-1","parameterCategory":1,"la1":30.2991,"la2":30.254,"lo1":-89.0895,"lo2":-89.0444,"dy":0.0017,"dx":0.0017,"nx":28,"ny":28,"refTime":"2024-02-05T03:00:00:Z","depth":0,"parameterNumber":2,"parameterNumberName":"U-component_of_WINDS"},"data":[0,0,0,0,0,0,0,0,0,0,0,0,0,0,0,0,0,0,0,0,0,0,0,0,0,0,0,0,0,0,0,0,0,0,0,0,0,0,0,0,0,0,0,0,0,0,0,0,0,0,0,0,0,0,0,0,0,0,0.2736,0.2735,0,0.2701,0.2701,0.27,0.2699,0.27,0.27,0.27,0.2662,0.266,0.2659,0,0,0,0,0,0,0,0,0,0,0,0,0,0.2798,0.2797,0.2736,0.2735,0.2735,0.2701,0.2701,0.27,0.2699,0.27,0.27,0.2701,0.2662,0.266,0.2659,0,0,0,0,0,0,0,0,0,0,0,0,0,0.2768,0.2796,0.2736,0.273,0.2729,0.2701,0.2701,0.27,0.2699,0.27,0.27,0.2701,0.2663,0.2661,0.2658,0.2633,0,0,0.2652,0.2651,0,0,0,0,0,0,0,0,0.277,0.2766,0.2731,0.2731,0.273,0.2705,0.2709,0.2677,0.2699,0.271,0.27,0.2701,0.2675,0.2672,0.2664,0.2631,0.2629,0.2652,0.265,0.265,0.2649,0,0,0,0,0,0,0,0.2772,0.2767,0.2722,0.2731,0.273,0.2729,0.2725,0.2703,0.269,0.2709,0.2709,0.2705,0.2675,0.2666,0.2663,0.2629,0.2652,0.265,0.2649,0.2648,0.2572,0.2572,0,0,0,0,0,0,0.2775,0.2769,0.2723,0.2721,0.2752,0.2727,0.2723,0.2712,0.269,0.2687,0.2705,0.2705,0.267,0.2666,0.2662,0.263,0.265,0.2648,0.2646,0.2573,0.2572,0.2572,0,0,0,0,0,0,0.2777,0.2771,0.2724,0.2745,0.2739,0.2725,0.2713,0.2711,0.2703,0.2687,0.2684,0.2699,0.267,0.2665,0.264,0.2629,0.2647,0.2645,0.2574,0.2573,0.2572,0.2566,0,0,0,0,0,0,0.2778,0.2772,0.2762,0.2745,0.2738,0.2704,0.2713,0.271,0.2699,0.27,0.268,0.2677,0.267,0.2643,0.2638,0.2626,0.2643,0.2575,0.2574,0.2572,0.2568,0.2565,0.2563,0,0,0,0,0,0.2781,0.2761,0.2762,0.2756,0.2726,0.2703,0.2699,0.2692,0.2699,0.2688,0.2678,0.2678,0.2631,0.2641,0.2635,0.2622,0.2576,0.2574,0.2572,0.2568,0.2566,0.2563,0,0,0,0,0,0,0.2776,0.2759,0.2759,0.2734,0.272,0.2703,0.269,0.269,0.2673,0.2674,0.2666,0.2661,0.2637,0.2627,0.2638,0.2596,0.2604,0.2601,0.2603,0.26,0.2598,0.2601,0.2641,0,0,0,0,0,0.2773,0.2757,0.2742,0.2721,0.2714,0.2704,0.2693,0.269,0.2675,0.2669,0.2657,0.2641,0.2623,0.2612,0.2594,0.2567,0.2562,0.2555,0.2553,0.2551,0.2548,0.2533,0.253,0.2566,0.2566,0.2566,0,0,0.2764,0.2753,0.2743,0.272,0.2709,0.2692,0.2699,0.268,0.2667,0.2665,0.2642,0.2632,0.2615,0.2589,0.2577,0.258,0.2538,0.2549,0.2548,0.2546,0.2531,0.2528,0.2525,0.2565,0.2565,0.2565,0,0,0.274,0.273,0.2712,0.2701,0.2685,0.2678,0.2674,0.2657,0.2652,0.2628,0.2626,0.2611,0.258,0.2567,0.2557,0.253,0.2529,0.2525,0.2513,0.2498,0.2496,0.2493,0.2483,0.2479,0.2522,0.2522,0.2522,0,0.2731,0.2707,0.2702,0.2684,0.2673,0.2673,0.2654,0.2643,0.2622,0.2614,0.2619,0.2581,0.2569,0.254,0.2534,0.2526,0.252,0.2526,0.2497,0.2494,0.2491,0.2482,0.2478,0.2522,0.2522,0.2522,0.2522,0,0.2697,0.268,0.2666,0.2647,0.2635,0.2617,0.2609,0.2597,0.2595,0.2588,0.2563,0.255,0.2529,0.2522,0.2519,0.2493,0.2496,0.2499,0.2506,0.2488,0.2478,0.2474,0.2521,0.2521,0.2521,0.2521,0,0,0.2667,0.2647,0.2642,0.2634,0.2617,0.2603,0.2584,0.2566,0.2556,0.2542,0.2525,0.25,0.2503,0.2491,0.2487,0.2474,0.2454,0.2479,0.2478,0.2474,0.2423,0.2421,0.2416,0.2453,0.2453,0.2452,0.2425,0,0.2641,0.2609,0.2605,0.2576,0.256,0.256,0.2544,0.2531,0.2524,0.2509,0.25,0.2483,0.2488,0.2481,0.2469,0.2459,0.2443,0.2461,0.2437,0.2436,0.244,0.2412,0.2408,0.2383,0.2421,0.242,0.242,0,0.2605,0.2592,0.2562,0.2547,0.2541,0.2526,0.2509,0.2495,0.2481,0.2477,0.2464,0.2462,0.2442,0.2452,0.2424,0.2436,0.2426,0.242,0.2419,0.2415,0.2426,0.2406,0.2375,0.2371,0.2414,0.2415,0.2415,0,0.2586,0.256,0.2539,0.2532,0.2515,0.2505,0.2497,0.2484,0.2473,0.2458,0.2451,0.2434,0.2424,0.241,0.2403,0.2411,0.2375,0.2384,0.237,0.2371,0.2362,0.2362,0.2327,0.2357,0.2357,0.2357,0.2358,0,0.2557,0.2538,0.253,0.2517,0.2496,0.2492,0.2471,0.2463,0.2452,0.2436,0.2435,0.2421,0.2413,0.2397,0.2391,0.2369,0.2365,0.236,0.2359,0.236,0.236,0.2352,0.2353,0.2356,0.2357,0.2357,0.2357,0,0.2531,0.2525,0.2502,0.2489,0.2485,0.247,0.2458,0.2445,0.2439,0.242,0.2415,0.2405,0.2386,0.2378,0.2355,0.2351,0.2325,0.2326,0.233,0.233,0.2316,0.2317,0.2274,0.2268,0.2303,0.2302,0.2302,0,0.2512,0.2498,0.2484,0.2474,0.2466,0.2451,0.2441,0.2436,0.2425,0.2408,0.2397,0.2379,0.2364,0.2335,0.2324,0.2307,0.2306,0.2292,0.2303,0.2305,0.2305,0.2305,0.2304,0.229,0.2289,0.2289,0.2289,0,0.2479,0.2477,0.2463,0.2447,0.2436,0.2423,0.2411,0.2403,0.2396,0.2384,0.2366,0.2354,0.2332,0.2313,0.2296,0.2287,0.2286,0.2286,0.2281,0.2282,0.2285,0.2282,0.2324,0.2286,0.2286,0.2287,0.2287,0.2287,0.2455,0.2443,0.2431,0.2415,0.2406,0.2395,0.2382,0.2375,0.236,0.2342,0.234,0.2321,0.2307,0.2283,0.2274,0.2258,0.2261,0.2255,0.2254,0.2252,0.2251,0.2289,0.2255,0.2255,0.2255,0.2255,0.2255,0,0.2421,0.2414,0.24,0.2383,0.2371,0.2374,0.2361,0.235,0.2333,0.2321,0.2307,0.2286,0.2269,0.2258,0.2241,0.223,0.2229,0.2225,0.2225,0.2223,0.2249,0.2254,0.2226,0.2226,0.2226,0.2226,0.2226,0.2226,0.2402,0.2381,0.2378,0.2353,0.2345,0.2327,0.2319,0.2309,0.23,0.2277,0.2263,0.2257,0.2245,0.2227,0.2211,0.2208,0.2202,0.2197,0.2195,0.2219,0.2221,0.2224,0.2229,0.2196,0.2196,0.217,0.217,0.217]},{"header":{"parameterUnit":"m.s-1","parameterCategory":1,"la1":30.2991,"la2":30.254,"lo1":-89.0895,"lo2":-89.0444,"dy":0.0017,"dx":0.0017,"nx":28,"ny":28,"refTime":"2024-02-05T03:00:00:Z","depth":0,"parameterNumber":3,"parameterNumberName":"V-component_of_WINDS"},"data":[0,0,0,0,0,0,0,0,0,0,0,0,0,0,0,0,0,0,0,0,0,0,0,0,0,0,0,0,0,0,0,0,0,0,0,0,0,0,0,0,0,0,0,0,0,0,0,0,0,0,0,0,0,0,0,0,0,0,-6.5983,-6.5985,0,-6.6119,-6.612,-6.6122,-6.6062,-6.6059,-6.6056,-6.6052,-6.6187,-6.6194,-6.62,0,0,0,0,0,0,0,0,0,0,0,0,0,-6.5668,-6.5674,-6.5983,-6.5985,-6.5986,-6.6119,-6.612,-6.6122,-6.6063,-6.6059,-6.6055,-6.6051,-6.6185,-6.6193,-6.6201,0,0,0,0,0,0,0,0,0,0,0,0,0,-6.5805,-6.5676,-6.5983,-6.5973,-6.5973,-6.6118,-6.6121,-6.6123,-6.6064,-6.6059,-6.6054,-6.6049,-6.6182,-6.6192,-6.6202,-6.6364,0,0,-6.6233,-6.6237,0,0,0,0,0,0,0,0,-6.5797,-6.5816,-6.5972,-6.5974,-6.5974,-6.6069,-6.6059,-6.6203,-6.6065,-6.6029,-6.6052,-6.6047,-6.6151,-6.6164,-6.62,-6.637,-6.6376,-6.6234,-6.624,-6.6244,-6.6247,0,0,0,0,0,0,0,-6.5787,-6.581,-6.6036,-6.5975,-6.5976,-6.596,-6.5974,-6.6086,-6.6116,-6.6032,-6.6028,-6.6045,-6.6151,-6.619,-6.6203,-6.6378,-6.6233,-6.6242,-6.6248,-6.6252,-6.6688,-6.6693,0,0,0,0,0,0,-6.5779,-6.5802,-6.6032,-6.6041,-6.5872,-6.597,-6.5985,-6.6043,-6.6115,-6.6121,-6.6049,-6.6042,-6.6176,-6.6191,-6.6207,-6.6402,-6.6244,-6.6253,-6.6259,-6.6682,-6.6689,-6.6695,0,0,0,0,0,0,-6.5772,-6.58,-6.6027,-6.5921,-6.5948,-6.5981,-6.6046,-6.6049,-6.6088,-6.6128,-6.6133,-6.6084,-6.6172,-6.6193,-6.6326,-6.6406,-6.6258,-6.6267,-6.6676,-6.6684,-6.6692,-6.6793,0,0,0,0,0,0,-6.5763,-6.5798,-6.586,-6.5923,-6.5954,-6.6145,-6.6051,-6.6055,-6.6106,-6.6098,-6.6162,-6.6168,-6.617,-6.6311,-6.6336,-6.6417,-6.6275,-6.6668,-6.6679,-6.6689,-6.6783,-6.6804,-6.6822,0,0,0,0,0,-6.5752,-6.5882,-6.5864,-6.5892,-6.6033,-6.6149,-6.6167,-6.6168,-6.6113,-6.6176,-6.6201,-6.6166,-6.6393,-6.6325,-6.6352,-6.6438,-6.6663,-6.6676,-6.6688,-6.6774,-6.68,-6.6821,0,0,0,0,0,0,-6.5827,-6.589,-6.587,-6.6025,-6.6082,-6.6139,-6.6218,-6.6195,-6.6269,-6.6257,-6.6254,-6.6269,-6.6407,-6.6435,-6.6358,-6.6598,-6.652,-6.6538,-6.6575,-6.66,-6.6619,-6.661,-6.6283,0,0,0,0,0,-6.5862,-6.5952,-6.6001,-6.6132,-6.6163,-6.6186,-6.6236,-6.6232,-6.6291,-6.6315,-6.635,-6.6407,-6.6491,-6.6547,-6.6626,-6.6786,-6.6799,-6.6858,-6.6878,-6.6894,-6.691,-6.6997,-6.7024,-6.6736,-6.6736,-6.6735,0,0,-6.5934,-6.5979,-6.6036,-6.6149,-6.6193,-6.6286,-6.6207,-6.6307,-6.6376,-6.6329,-6.6458,-6.6486,-6.6549,-6.6696,-6.6763,-6.6724,-6.6993,-6.691,-6.6922,-6.693,-6.7013,-6.704,-6.7064,-6.6744,-6.6743,-6.6741,0,0,-6.6113,-6.6156,-6.6271,-6.6317,-6.6386,-6.64,-6.6428,-6.6489,-6.6506,-6.6635,-6.6602,-6.6683,-6.6828,-6.6875,-6.6918,-6.7116,-6.7086,-6.7141,-6.7244,-6.7329,-6.7352,-6.7372,-6.7444,-6.7469,-6.7157,-6.7157,-6.7158,0,-6.6193,-6.6333,-6.6332,-6.6437,-6.6488,-6.6451,-6.6567,-6.6611,-6.6702,-6.6737,-6.6693,-6.6875,-6.6915,-6.7073,-6.7122,-6.7157,-6.7189,-6.7135,-6.7349,-6.7369,-6.7388,-6.7456,-6.7483,-6.7164,-6.7163,-6.7162,-6.7162,0,-6.6429,-6.6527,-6.6611,-6.6702,-6.6761,-6.6871,-6.6886,-6.6946,-6.6937,-6.6956,-6.7087,-6.7134,-6.7224,-6.726,-6.7251,-6.7418,-6.7392,-6.7349,-6.7269,-6.7422,-6.7486,-6.7512,-6.7173,-6.7171,-6.7169,-6.7167,0,0,-6.666,-6.6749,-6.678,-6.6822,-6.6895,-6.6969,-6.7077,-6.7166,-6.7218,-6.7281,-6.7371,-6.7495,-6.7456,-6.7505,-6.7501,-6.7575,-6.773,-6.7523,-6.7524,-6.7561,-6.7918,-6.7951,-6.7981,-6.7711,-6.7716,-6.772,-6.7913,0,-6.6845,-6.7036,-6.7039,-6.7214,-6.7304,-6.7271,-6.7364,-6.7419,-6.7439,-6.7518,-6.7539,-6.7628,-6.7569,-6.7598,-6.7671,-6.7696,-6.7802,-6.7682,-6.7794,-6.7799,-6.7781,-6.8015,-6.805,-6.823,-6.7938,-6.7942,-6.7945,0,-6.7087,-6.7161,-6.7346,-6.7407,-6.7445,-6.7529,-6.7612,-6.7687,-6.7748,-6.7757,-6.7813,-6.7797,-6.7906,-6.7823,-6.7973,-6.7891,-6.7937,-6.7957,-6.7963,-6.7975,-6.7882,-6.8034,-6.8287,-6.8315,-6.7984,-6.7981,-6.7978,0,-6.7239,-6.7384,-6.7513,-6.7549,-6.7623,-6.7684,-6.7717,-6.7773,-6.7827,-6.7898,-6.7933,-6.8014,-6.806,-6.8123,-6.813,-6.8069,-6.8281,-6.8198,-6.8292,-6.8292,-6.8339,-6.8337,-6.8606,-6.8367,-6.8366,-6.8366,-6.8365,0,-6.7447,-6.7561,-6.7583,-6.7663,-6.779,-6.7791,-6.7916,-6.7944,-6.7995,-6.8079,-6.8054,-6.8133,-6.8136,-6.8217,-6.8223,-6.8347,-6.8366,-6.8377,-6.8378,-6.8381,-6.838,-6.8411,-6.84,-6.8373,-6.8371,-6.837,-6.8369,0,-6.7638,-6.7657,-6.7796,-6.7856,-6.7873,-6.7964,-6.8015,-6.809,-6.8108,-6.8215,-6.824,-6.8268,-6.8362,-6.8375,-6.8484,-6.8488,-6.8637,-6.8623,-6.8617,-6.8616,-6.871,-6.8701,-6.901,-6.905,-6.8784,-6.8786,-6.8788,0,-6.777,-6.7858,-6.7927,-6.7983,-6.802,-6.8109,-6.8164,-6.8169,-6.8227,-6.8303,-6.837,-6.8461,-6.8535,-6.8686,-6.8716,-6.8799,-6.8788,-6.889,-6.88,-6.8801,-6.8791,-6.8787,-6.8796,-6.8908,-6.8911,-6.8913,-6.8915,0,-6.8003,-6.8009,-6.809,-6.8175,-6.8242,-6.8309,-6.8372,-6.8418,-6.843,-6.8496,-6.8593,-6.8651,-6.8763,-6.8854,-6.8937,-6.8969,-6.8945,-6.8943,-6.897,-6.8974,-6.8968,-6.8974,-6.8666,-6.8936,-6.8934,-6.8933,-6.8932,-6.8931,-6.817,-6.8247,-6.8309,-6.84,-6.8448,-6.8508,-6.8583,-6.8611,-6.8692,-6.8785,-6.8782,-6.8889,-6.8947,-6.9056,-6.9094,-6.9177,-6.9143,-6.9181,-6.9191,-6.9201,-6.9211,-6.8954,-6.9192,-6.9191,-6.919,-6.919,-6.9189,0,-6.8403,-6.8441,-6.8526,-6.8616,-6.8688,-6.8659,-6.8727,-6.8789,-6.8884,-6.8941,-6.9015,-6.9126,-6.9215,-6.9251,-6.9338,-6.9397,-6.9388,-6.942,-6.9416,-6.9424,-6.9235,-6.9205,-6.9426,-6.9426,-6.9426,-6.9426,-6.9426,-6.9426,-6.8533,-6.8662,-6.8675,-6.8828,-6.8864,-6.897,-6.9012,-6.9066,-6.9112,-6.9239,-6.9313,-6.9337,-6.9386,-6.9476,-6.9556,-6.9564,-6.9597,-6.9635,-6.9638,-6.9461,-6.9437,-6.9415,-6.9386,-6.9642,-6.9642,-6.9821,-6.9822,-6.9824]}]]